Bei Facebook empfehlenBei Twitter postenGoogle plusPinterest

Das Wetter im Erzgebirge am 18.01.2017

Wetter und Klima am 18.01.2017 Holzhau im Erzgebirge (630m ü.NN)
Letzte gemessene Temperatur und Uhrzeit der Messung23:45:00 Uhr-14.10 °C
Temperatur (Maximum / Höchstwert) und Uhrzeit der Messung13:30:00 Uhr-0.70 °C
Temperatur (Minimum / Tiefstwert) und Uhrzeit der Messung08:15:00-15.70 °C
Errechneter Absolutwert der Temperaturschwankungen zwischen Tmin und Tmax des Tages15.00 K
Errechnete Tagesmitteltemperatur-11.03125 °C
Gesamt - Niederschlag des Tages (in flüssiger Form)0.00 Liter / m²
Luftdruck (Maximum / Höchstwert) und Zeitpunkt der Messung09:15:00 Uhr1031.90 hPa
Luftdruck (Minimum / Tiefstwert) und Zeitpunkt der Messung00:00:00 Uhr1029.30 hPa
Errechneter Absolutwert der Luftdruckschwankungen des Tages2.60 hPa
Höchste gemessene Windgeschwindigkeit und Uhrzeit der Messung23:45:00 Uhr0.00 km/h
Errechnete Windhäufigkeit in Relation zu den Messwerten des Tages0.00000 %
Niedrigste Windkühle (Windchill) und Zeitpunkt der Messung08:15:00 Uhr-15.70 °C
Taupunkt (Maximum / Höchstwert) und Uhrzeit der Messung13:30:00 Uhr-4.40 °C
Taupunkt (Minimum / Tiefstwert) und Uhrzeit der Messung08:15:00-17.70 °C
Anzahl der automatisch eingelesenen Messwerte 96

Detaillierte Wetter- und Klima- Messwerte für den 18.01.2017 in Holzhau im Erzgebirge (630m ü.NN)
ZeitTemperaturLuftdruckRel. LuftfeuchteWindWindrichtungWindchillTaupunktNiederschlag l/m²
23:45:00-14.10 °C1030.40 hPa87.00 %-16.00 °C 
23:30:00-14.10 °C1030.60 hPa87.00 %-16.00 °C 
23:15:00-14.40 °C1030.90 hPa87.00 %-16.30 °C 
23:00:00-14.50 °C1031.00 hPa87.00 %-16.40 °C 
22:45:00-14.90 °C1031.10 hPa86.00 %-16.90 °C 
22:30:00-14.40 °C1031.20 hPa87.00 %-16.30 °C 
22:15:00-14.60 °C1031.20 hPa87.00 %-16.50 °C 
22:00:00-14.60 °C1031.30 hPa86.00 %-16.70 °C 
21:45:00-14.10 °C1031.30 hPa86.00 %-16.20 °C 
21:30:00-14.20 °C1031.20 hPa87.00 %-16.10 °C 
21:15:00-13.90 °C1031.30 hPa87.00 %-15.80 °C 
21:00:00-14.10 °C1031.30 hPa88.00 %-15.80 °C 
20:45:00-14.50 °C1031.10 hPa87.00 %-16.40 °C 
20:30:00-14.40 °C1031.30 hPa87.00 %-16.30 °C 
20:15:00-14.20 °C1031.30 hPa87.00 %-16.10 °C 
20:00:00-13.90 °C1031.30 hPa87.00 %-15.80 °C 
19:45:00-13.60 °C1031.30 hPa87.00 %-15.50 °C 
19:30:00-13.80 °C1031.20 hPa86.00 %-15.90 °C 
19:15:00-13.40 °C1031.30 hPa86.00 %-15.50 °C 
19:00:00-13.10 °C1031.20 hPa86.00 %-15.20 °C 
18:45:00-12.60 °C1031.30 hPa86.00 %-14.70 °C 
18:30:00-12.40 °C1031.10 hPa87.00 %-14.30 °C 
18:15:00-12.20 °C1031.20 hPa87.00 %-14.10 °C 
18:00:00-12.40 °C1031.30 hPa87.00 %-14.30 °C 
17:45:00-12.40 °C1031.30 hPa86.00 %-14.50 °C 
17:30:00-12.20 °C1031.30 hPa85.00 %-14.50 °C 
17:15:00-11.90 °C1031.50 hPa83.00 %-14.50 °C 
17:00:00-10.80 °C1031.50 hPa81.00 %-13.70 °C 
16:45:00-9.90 °C1031.60 hPa81.00 %-12.90 °C 
16:30:00-8.90 °C1031.60 hPa80.00 %-12.10 °C 
16:15:00-7.60 °C1031.50 hPa79.00 %-11.00 °C 
16:00:00-6.50 °C1031.70 hPa79.00 %-9.90 °C 
15:45:00-5.10 °C1031.60 hPa77.00 %-8.90 °C 
15:30:00-3.90 °C1031.50 hPa78.00 %-7.60 °C 
15:15:00-3.20 °C1031.50 hPa79.00 %-6.70 °C 
15:00:00-2.90 °C1031.50 hPa78.00 %-6.60 °C 
14:45:00-2.20 °C1031.30 hPa76.00 %-6.30 °C 
14:30:00-1.30 °C1031.40 hPa77.00 %-5.20 °C 
14:15:00-1.10 °C1031.40 hPa78.00 %-4.80 °C 
14:00:00-1.10 °C1031.40 hPa78.00 %-4.80 °C 
13:45:00-0.80 °C1031.20 hPa78.00 %-4.50 °C 
13:30:00-0.70 °C1031.00 hPa78.00 %-4.40 °C 
13:15:00-1.10 °C1031.20 hPa79.00 %-4.60 °C 
13:00:00-1.60 °C1031.20 hPa80.00 %-4.90 °C 
12:45:00-1.80 °C1031.30 hPa81.00 %-5.00 °C 
12:30:00-2.20 °C1031.30 hPa84.00 %-4.80 °C 
12:15:00-3.10 °C1031.50 hPa84.00 %-5.70 °C 
12:00:00-3.40 °C1031.60 hPa85.00 %-5.80 °C 
11:45:00-4.10 °C1031.50 hPa88.00 %-6.00 °C 
11:30:00-4.70 °C1031.60 hPa89.00 %-6.40 °C 
11:15:00-5.50 °C1031.50 hPa90.00 %-7.00 °C 
11:00:00-6.90 °C1031.70 hPa91.00 %-8.30 °C 
10:45:00-8.20 °C1031.70 hPa91.00 %-9.60 °C 
10:30:00-9.20 °C1031.80 hPa92.00 %-10.40 °C 
10:15:00-10.70 °C1031.80 hPa91.00 %-12.00 °C 
10:00:00-12.40 °C1031.60 hPa90.00 %-13.90 °C 
09:45:00-13.40 °C1031.60 hPa89.00 %-15.00 °C 
09:30:00-13.60 °C1031.60 hPa89.00 %-15.20 °C 
09:15:00-14.70 °C1031.90 hPa88.00 %-16.40 °C 
09:00:00-15.20 °C1031.80 hPa87.00 %-17.10 °C 
08:45:00-15.50 °C1031.60 hPa87.00 %-17.40 °C 
08:30:00-15.60 °C1031.40 hPa87.00 %-17.50 °C 
08:15:00-15.70 °C1031.10 hPa86.00 %-17.70 °C 
08:00:00-15.30 °C1030.80 hPa86.00 %-17.30 °C 
07:45:00-14.50 °C1030.80 hPa87.00 %-16.40 °C 
07:30:00-14.50 °C1030.50 hPa88.00 %-16.20 °C 
07:15:00-15.10 °C1030.50 hPa88.00 %-16.80 °C 
07:00:00-15.60 °C1030.40 hPa87.00 %-17.50 °C 
06:45:00-15.60 °C1030.20 hPa87.00 %-17.50 °C 
06:30:00-15.20 °C1029.90 hPa87.00 %-17.10 °C 
06:15:00-15.10 °C1029.60 hPa88.00 %-16.80 °C 
06:00:00-15.20 °C1029.80 hPa87.00 %-17.10 °C 
05:45:00-15.40 °C1029.60 hPa87.00 %-17.30 °C 
05:30:00-15.40 °C1029.80 hPa87.00 %-17.30 °C 
05:15:00-15.20 °C1029.70 hPa87.00 %-17.10 °C 
05:00:00-15.10 °C1029.80 hPa87.00 %-17.00 °C 
04:45:00-14.90 °C1029.70 hPa87.00 %-16.80 °C 
04:30:00-15.00 °C1029.70 hPa86.00 %-17.00 °C 
04:15:00-14.70 °C1029.50 hPa87.00 %-16.60 °C 
04:00:00-14.40 °C1029.60 hPa87.00 %-16.30 °C 
03:45:00-14.10 °C1029.60 hPa87.00 %-16.00 °C 
03:30:00-14.00 °C1029.70 hPa88.00 %-15.80 °C 
03:15:00-13.90 °C1029.80 hPa87.00 %-15.80 °C 
03:00:00-13.50 °C1030.00 hPa87.00 %-15.40 °C 
02:45:00-13.50 °C1030.10 hPa87.00 %-15.40 °C 
02:30:00-13.20 °C1030.10 hPa88.00 %-15.00 °C 
02:15:00-13.00 °C1030.00 hPa87.00 %-14.90 °C 
02:00:00-12.60 °C1029.80 hPa88.00 %-14.40 °C 
01:45:00-12.10 °C1029.70 hPa88.00 %-13.90 °C 
01:30:00-11.40 °C1029.60 hPa88.00 %-13.20 °C 
01:15:00-10.60 °C1029.40 hPa89.00 %-12.20 °C 
01:00:00-10.10 °C1029.40 hPa89.00 %-11.70 °C 
00:45:00-9.90 °C1029.50 hPa89.00 %-11.50 °C 
00:30:00-9.40 °C1029.40 hPa89.00 %-11.10 °C 
00:15:00-9.10 °C1029.40 hPa89.00 %-10.80 °C 
00:00:00-8.90 °C1029.30 hPa89.00 %-10.60 °C 

Permanenter Link zu dieser Seite: Wetter im Erzgebirge am 18.01.2017
Performance-Info: Die Erstellung der Seite / Statistik(en) / Tabelle(n) erforderte 5 Datenbankserver-Abfrage(n) und dauerte 123 Millisekunden. (Dieser Messwert ist von der Gesamt-Auslastung des Servers abhängig.)
Erzgebirge - Wetter | Erzgebirge - Wetter (Mobilgeräte) | Komplette Klimadatenbank